Time,TemperatureF,DewpointF,PressureIn,WindDirection,WindDirectionDegrees,WindSpeedMPH,WindSpeedGustMPH,Humidity,HourlyPrecipIn,Conditions,Clouds,dailyrainin,SolarRadiationWatts/m^2,SoftwareType,DateUTC
2015-04-27 00:41:00,45.0,28.0,30.24,West,259,3.0,6.0,52,-99.99,,,-99.99,0.000000,,2015-04-27 07:41:00,
2015-04-27 01:51:00,45.0,28.0,30.21,West,259,0.0,4.0,52,-99.99,,,-99.99,0.000000,,2015-04-27 08:51:00,
2015-04-27 02:21:00,44.0,29.0,30.21,West,259,3.0,4.0,55,-99.99,,,-99.99,0.000000,,2015-04-27 09:21:00,
2015-04-27 02:51:00,42.0,28.0,30.21,West,259,3.0,4.0,58,-99.99,,,-99.99,0.000000,,2015-04-27 09:51:00,
2015-04-27 03:01:00,42.0,28.0,30.21,West,259,0.0,6.0,58,-99.99,,,-99.99,0.000000,,2015-04-27 10:01:00,
2015-04-27 03:21:00,42.0,29.0,30.21,West,259,0.0,0.0,59,-99.99,,,-99.99,0.000000,,2015-04-27 10:21:00,
2015-04-27 03:31:00,42.0,29.0,30.21,West,259,0.0,0.0,59,-99.99,,,-99.99,0.000000,,2015-04-27 10:31:00,
2015-04-27 03:41:00,42.0,29.0,30.21,West,259,0.0,1.0,60,-99.99,,,-99.99,0.000000,,2015-04-27 10:41:00,
2015-04-27 04:01:00,41.0,29.0,30.21,West,259,0.0,3.0,61,-99.99,,,-99.99,0.000000,,2015-04-27 11:01:00,
2015-04-27 04:21:00,40.0,28.0,30.21,West,259,0.0,6.0,63,-99.99,,,-99.99,0.000000,,2015-04-27 11:21:00,
2015-04-27 04:41:00,41.0,29.0,30.21,West,259,0.0,2.0,63,-99.99,,,-99.99,0.000000,,2015-04-27 11:41:00,
2015-04-27 05:21:00,40.0,29.0,30.23,West,259,1.0,4.0,64,-99.99,,,-99.99,0.000000,,2015-04-27 12:21:00,
2015-04-27 05:42:00,39.0,28.0,30.25,West,259,2.0,5.0,65,-99.99,,,-99.99,0.000000,,2015-04-27 12:42:00,
2015-04-27 05:52:00,39.0,29.0,30.25,West,259,0.0,5.0,66,-99.99,,,-99.99,0.000000,,2015-04-27 12:52:00,
2015-04-27 06:11:00,39.0,29.0,30.25,West,259,0.0,4.0,66,-99.99,,,-99.99,0.000000,,2015-04-27 13:11:00,
2015-04-27 06:21:00,39.0,29.0,30.25,West,259,2.0,3.0,67,-99.99,,,-99.99,0.000000,,2015-04-27 13:21:00,
2015-04-27 06:31:00,39.0,29.0,30.25,West,259,0.0,3.0,66,-99.99,,,-99.99,5.000000,,2015-04-27 13:31:00,
2015-04-27 07:01:00,39.0,29.0,30.26,West,259,0.0,4.0,68,-99.99,,,-99.99,19.000000,,2015-04-27 14:01:00,
2015-04-27 07:21:00,40.0,31.0,30.26,West,259,0.0,0.0,69,-99.99,,,-99.99,30.000000,,2015-04-27 14:21:00,
2015-04-27 07:41:00,43.0,31.0,30.27,West,259,0.0,0.0,62,-99.99,,,-99.99,176.000000,,2015-04-27 14:41:00,
2015-04-27 08:01:00,45.0,30.0,30.28,West,259,0.0,2.0,56,-99.99,,,-99.99,257.000000,,2015-04-27 15:01:00,
2015-04-27 08:21:00,47.0,32.0,30.28,West,259,0.0,0.0,56,-99.99,,,-99.99,316.000000,,2015-04-27 15:21:00,
2015-04-27 08:31:00,48.0,32.0,30.28,WSW,253,0.0,0.0,53,-99.99,,,-99.99,360.000000,,2015-04-27 15:31:00,
2015-04-27 09:31:00,53.0,31.0,30.29,NNE,30,2.0,5.0,42,-99.99,,,-99.99,559.000000,,2015-04-27 16:31:00,
2015-04-27 10:01:00,56.0,31.0,30.28,NE,36,3.0,4.0,39,-99.99,,,-99.99,668.000000,,2015-04-27 17:01:00,
2015-04-27 10:11:00,56.0,31.0,30.27,NE,36,1.0,4.0,38,-99.99,,,-99.99,700.000000,,2015-04-27 17:11:00,
2015-04-27 10:21:00,58.0,31.0,30.27,East,91,1.0,4.0,35,-99.99,,,-99.99,731.000000,,2015-04-27 17:21:00,
2015-04-27 10:31:00,59.0,31.0,30.27,East,95,1.0,6.0,34,-99.99,,,-99.99,744.000000,,2015-04-27 17:31:00,
2015-04-27 11:21:00,62.0,28.0,30.25,ESE,123,5.0,10.0,27,-99.99,,,-99.99,868.000000,,2015-04-27 18:21:00,
2015-04-27 11:42:00,63.0,29.0,30.25,SSE,157,9.0,13.0,27,-99.99,,,-99.99,925.000000,,2015-04-27 18:42:00,
2015-04-27 12:01:00,63.0,29.0,30.25,ESE,103,7.0,11.0,27,-99.99,,,-99.99,942.000000,,2015-04-27 19:01:00,
2015-04-27 12:21:00,64.0,28.0,30.24,SSE,165,1.0,10.0,26,-99.99,,,-99.99,974.000000,,2015-04-27 19:21:00,
2015-04-27 12:51:00,65.0,28.0,30.25,NE,44,8.0,12.0,25,-99.99,,,-99.99,708.000000,,2015-04-27 19:51:00,
2015-04-27 13:01:00,65.0,31.0,30.24,ENE,67,3.0,11.0,28,-99.99,,,-99.99,1005.000000,,2015-04-27 20:01:00,
2015-04-27 13:11:00,66.0,30.0,30.24,ENE,61,5.0,12.0,26,-99.99,,,-99.99,1011.000000,,2015-04-27 20:11:00,
2015-04-27 13:21:00,66.0,30.0,30.24,ENE,61,5.0,12.0,26,-99.99,,,-99.99,1011.000000,,2015-04-27 20:21:00,
2015-04-27 13:41:00,67.0,32.0,30.22,East,90,4.0,16.0,27,-99.99,,,-99.99,1009.000000,,2015-04-27 20:41:00,
2015-04-27 14:11:00,67.0,29.0,30.21,SSE,165,9.0,13.0,24,-99.99,,,-99.99,995.000000,,2015-04-27 21:11:00,
2015-04-27 14:21:00,68.0,29.0,30.21,ENE,63,3.0,7.0,23,-99.99,,,-99.99,988.000000,,2015-04-27 21:21:00,
2015-04-27 15:21:00,69.0,27.0,30.19,South,174,4.0,7.0,21,-99.99,,,-99.99,895.000000,,2015-04-27 22:21:00,
2015-04-27 15:41:00,69.0,30.0,30.17,East,91,2.0,10.0,23,-99.99,,,-99.99,853.000000,,2015-04-27 22:41:00,
2015-04-27 16:01:00,69.0,29.0,30.17,ENE,77,3.0,4.0,22,-99.99,,,-99.99,817.000000,,2015-04-27 23:01:00,
2015-04-27 16:11:00,70.0,28.0,30.16,ENE,72,3.0,6.0,21,-99.99,,,-99.99,777.000000,,2015-04-27 23:11:00,
2015-04-27 16:21:00,70.0,29.0,30.16,ENE,64,3.0,12.0,22,-99.99,,,-99.99,759.000000,,2015-04-27 23:21:00,
2015-04-27 17:01:00,70.0,27.0,30.14,NW,325,5.0,11.0,20,-99.99,,,-99.99,652.000000,,2015-04-28 00:01:00,
2015-04-27 17:21:00,70.0,28.0,30.14,WSW,249,1.0,10.0,21,-99.99,,,-99.99,568.000000,,2015-04-28 00:21:00,
2015-04-27 18:31:00,69.0,26.0,30.12,ENE,59,3.0,12.0,20,-99.99,,,-99.99,339.000000,,2015-04-28 01:31:00,
2015-04-27 18:41:00,68.0,25.0,30.12,ENE,78,4.0,10.0,20,-99.99,,,-99.99,276.000000,,2015-04-28 01:41:00,
2015-04-27 19:11:00,68.0,25.0,30.12,ENE,78,5.0,9.0,20,-99.99,,,-99.99,134.000000,,2015-04-28 02:11:00,
2015-04-27 19:21:00,67.0,26.0,30.12,East,84,4.0,7.0,21,-99.99,,,-99.99,100.000000,,2015-04-28 02:21:00,
2015-04-27 19:41:00,66.0,25.0,30.15,East,94,2.0,4.0,21,-99.99,,,-99.99,18.000000,,2015-04-28 02:41:00,
2015-04-27 19:51:00,66.0,25.0,30.15,East,94,2.0,4.0,21,-99.99,,,-99.99,18.000000,,2015-04-28 02:51:00,
2015-04-27 20:11:00,64.0,26.0,30.15,South,176,4.0,9.0,24,-99.99,,,-99.99,7.000000,,2015-04-28 03:11:00,
2015-04-27 20:21:00,62.0,26.0,30.15,South,171,5.0,9.0,25,-99.99,,,-99.99,0.000000,,2015-04-28 03:21:00,
2015-04-27 20:41:00,60.0,26.0,30.16,SSW,206,3.0,10.0,27,-99.99,,,-99.99,0.000000,,2015-04-28 03:41:00,
2015-04-27 21:10:00,59.0,26.0,30.16,South,183,4.0,6.0,28,-99.99,,,-99.99,0.000000,,2015-04-28 04:10:00,
2015-04-27 21:31:00,58.0,26.0,30.17,SSW,213,3.0,6.0,29,-99.99,,,-99.99,0.000000,,2015-04-28 04:31:00,
2015-04-27 21:41:00,57.0,25.0,30.17,SSW,212,5.0,8.0,29,-99.99,,,-99.99,0.000000,,2015-04-28 04:41:00,
2015-04-27 21:51:00,57.0,26.0,30.17,SW,222,4.0,10.0,30,-99.99,,,-99.99,0.000000,,2015-04-28 04:51:00,
2015-04-27 22:22:00,56.0,25.0,30.18,SW,229,8.0,11.0,30,-99.99,,,-99.99,0.000000,,2015-04-28 05:22:00,